Lid_Strength_Index
-1 -1 -0 3 10 10 13 12 8 9 8 5 5 6 7 7 9 10 1 0 -0 -0 -1 -1 -2 -1 -1 -1 -1 -1 -1 -1 -1 -1 -1 -1 -1 -1 -2 -2 -2 -2 -2 -2 -2 -2 -2 -2 -2
-1 0 2 6 12 15 14 10 10 7 6 5 5 6 7 9 4 4 2 -0 -1 -1 -1 -1 -2 -2 -1 -1 -1 -1 -1 -1 -1 -1 -1 -1 -1 -1 -2 -2 -2 -2 -2 -2 -2 -2 -2 -2 -2
-0 1 6 9 12 15 14 10 8 6 5 5 7 5 6 7 4 3 0 -0 -1 -1 -1 -1 -1 -1 -1 -1 -1 -1 -1 -1 -1 -1 -1 -1 -1 -2 -2 -2 -2 -2 -2 -2 -2 -2 -2 -2 -2
2 3 5 12 14 11 10 8 6 7 5 5 6 8 5 2 3 1 -0 -0 -0 -1 -1 -1 -1 -1 -1 -1 -1 -1 -1 -1 -2 -1 -1 -1 -1 -2 -2 -2 -2 -2 -2 -2 -2 -2 -2 -2 -2
2 5 11 13 13 10 8 7 6 7 6 6 6 8 7 3 1 0 0 -0 0 -0 -1 -1 -1 -1 -1 -1 -1 -1 -1 -1 -1 -1 -1 -1 -2 -2 -2 -2 -2 -2 -2 -2 -2 -2 -2 -2 -2
7 6 13 15 13 10 8 6 6 7 6 7 7 7 6 2 2 1 -0 -0 -1 -0 -1 -1 -1 -1 -1 -1 -1 -1 -1 -1 -1 -1 -2 -2 -2 -2 -2 -2 -2 -2 -2 -2 -2 -2 -2 -2 -1
8 10 13 13 13 11 9 6 7 7 7 7 5 8 6 3 1 0 0 -0 -1 -1 -1 -1 -1 -1 -1 -1 -1 -1 -2 -2 -1 -2 -2 -2 -2 -2 -2 -2 -2 -2 -2 -2 -2 -2 -2 -2 -2
6 8 12 12 13 13 8 7 6 6 7 3 3 8 8 3 1 0 0 0 -0 -1 -1 -1 -1 -1 -1 -1 -1 -2 -1 -1 -1 -2 -2 -2 -2 -2 -2 -2 -2 -2 -2 -2 -2 -2 -2 -2 -1
4 11 13 13 12 11 7 8 5 4 6 5 4 4 3 2 1 1 1 1 1 0 -0 -1 -1 -1 -2 -2 -1 -2 -2 -1 -2 -2 -1 -1 -2 -2 -1 -2 -2 -2 -2 -2 -2 -2 -2 -2 -1
7 11 12 9 9 9 8 7 6 7 7 7 6 3 2 2 2 3 2 3 2 1 0 -1 -1 -1 -1 -1 -2 -2 -1 -1 -1 -1 -2 -2 -2 -2 -2 -2 -2 -2 -1 -2 -1 -1 -1 -1 -2
7 11 9 8 7 7 8 7 5 7 9 6 7 5 3 3 3 2 2 2 2 1 0 -0 -1 -1 -1 -1 -1 -1 -1 -1 -1 -2 -2 -2 -2 -1 -1 -1 -2 -2 -1 -2 -2 -2 -2 -1 -2
10 8 8 8 7 7 8 6 8 7 6 4 4 4 3 3 3 3 2 2 2 1 0 -0 -1 -1 -1 -1 -1 -1 -1 -1 -1 -1 -2 -2 -1 -1 -1 -1 -1 -2 -2 -2 -2 -2 -2 -2 -2
8 8 7 7 6 6 6 8 8 7 5 4 3 3 4 3 3 2 2 1 1 1 1 0 -1 -1 -1 -1 -1 -1 -1 -1 -1 -1 -2 -1 -1 -1 -1 -1 -1 -2 -2 -2 -2 -1 -1 -1 -2
7 7 7 7 7 6 8 8 7 7 4 5 4 4 4 3 3 2 2 2 1 1 1 -0 -0 -1 -1 -1 -1 -1 -1 -1 -1 -1 -1 -2 -1 -1 -1 -1 -1 -1 -2 -2 -2 -1 -1 -1 -1
7 10 8 8 7 8 7 10 10 6 5 5 5 4 4 3 3 3 2 2 1 1 0 0 -0 -1 -1 -1 -1 -1 -1 -1 -1 -1 -2 -2 -2 -2 -2 -1 -1 -1 -2 -2 -2 -2 -1 -1 -1
9 9 13 9 8 8 8 14 9 6 6 6 5 5 4 4 3 2 2 1 1 1 0 -0 -0 -1 -1 -1 -1 -1 -2 -1 -1 -1 -2 -1 -2 -2 -2 -1 -1 -2 -2 -2 -1 -1 -1 -1 -1
10 13 13 12 8 9 9 12 8 6 6 6 6 5 5 4 3 2 1 1 1 0 0 0 -0 -0 -1 -1 -1 -1 -1 -1 -1 -1 -1 -1 -2 -2 -2 -1 -1 -2 -1 -1 -1 -1 -1 -0 -0
13 13 12 13 10 9 10 11 9 7 7 6 6 5 5 4 4 2 2 1 1 0 0 -0 -0 -0 -1 -1 -1 -1 -1 -1 -1 -1 -1 -2 -2 -1 -2 -1 -1 -2 -1 -1 -1 -0 -1 -1 -0
9 10 13 11 9 10 11 11 10 8 7 7 7 6 5 4 3 2 2 1 1 1 1 0 0 -0 -0 0 1 0 1 -0 -1 -1 -1 -1 -1 -1 -1 -1 -1 -1 -1 -1 -1 -1 -0 0 -0
10 12 13 11 10 10 11 11 9 8 8 7 6 6 5 5 4 3 2 1 1 1 1 0 0 -0 -0 -0 -0 -0 -0 -0 -1 -1 -1 -1 -1 -1 -1 -1 -1 -1 -1 -1 -1 -0 -0 -0 -0
10 11 12 12 10 10 11 13 11 9 7 7 6 5 4 4 4 3 3 2 1 1 1 1 0 -0 -0 -1 -0 -0 -0 -0 -0 -0 -0 -1 -1 -1 -1 -1 -2 -1 -1 -0 -1 -0 0 1 0
11 10 10 12 12 15 10 18 13 10 10 8 7 6 5 4 3 3 3 2 2 1 1 0 0 -0 -0 -1 -0 0 1 1 -0 -1 -1 -1 -1 -1 -1 -1 -1 -1 -1 -1 -1 -1 -0 -0 1
11 9 10 10 12 13 13 16 13 11 12 10 8 6 5 4 4 3 3 2 2 1 1 0 0 -0 -0 -0 -1 0 1 0 -0 -0 -0 -1 -2 -1 -1 -1 -1 -1 -1 -1 -1 -1 -1 -0 1
7 9 10 11 12 17 13 14 15 13 11 9 7 6 5 4 4 3 2 2 2 1 1 1 1 0 -0 -0 -0 0 0 0 1 1 1 -0 -0 -1 -1 -1 -1 -1 -1 -1 -1 -1 -1 -0 -0
8 11 15 16 17 16 12 14 11 10 8 8 7 6 5 4 4 4 3 3 2 2 1 1 1 1 0 0 0 -0 -0 0 0 0 1 0 0 0 -1 -1 -1 -1 -1 -1 -1 -1 -1 -1 -0
9 9 13 18 18 16 13 16 12 8 7 6 6 5 5 4 4 4 3 3 3 2 2 1 1 1 0 0 0 -0 -0 0 0 -0 0 0 0 -0 -1 -1 -2 -1 -1 -1 -1 -1 -1 -1 -1
8 11 8 12 12 14 14 13 10 9 8 7 7 6 6 5 4 4 3 3 2 2 2 1 1 1 0 0 0 -0 -0 -0 -0 -0 -1 -0 -1 -1 -1 -1 -1 -1 -1 -1 -1 -0 -0 -1 -1
7 6 11 11 16 17 16 15 14 12 10 8 8 7 6 4 4 4 4 3 2 2 2 1 1 1 1 0 0 0 -0 -0 -0 -1 -0 -0 -1 -1 -1 -1 -1 -1 -1 -1 -1 -1 -1 -0 -0
8 9 9 9 11 14 16 15 10 10 9 9 8 6 6 5 5 4 3 2 2 2 2 1 1 1 1 0 0 -0 0 -0 -0 -0 -0 -0 -1 -1 -1 -1 -1 -1 -0 -1 -1 -1 -1 -0 -0
7 8 8 11 13 12 13 14 9 8 8 8 8 6 5 4 4 4 3 3 3 3 2 2 1 1 1 1 0 0 -0 -0 0 0 -0 -1 -0 -1 -1 -1 -1 -1 -1 -1 -0 0 -0 -0 0